Big Rapids, MI

1:59 PM EST on February 12, 2016 (GMT -0500)
Roben-Hood

Weather History for KRQB - April, 2014

Change the Weather History Date:

Tuesday, April 15, 2014

  Actual Average Record
Temperature  
Mean Temperature 26 °F -  
Max Temperature 30 °F 55 °F 84 °F (2002)
Min Temperature 22 °F 34 °F 17 °F (2008)
Degree Days  
Heating Degree Days 39    
Moisture  
Dew Point 14 °F    
Average Humidity 62    
Maximum Humidity 85    
Minimum Humidity 33    
Precipitation  
Precipitation 0.00 in - - ()
Sea Level Pressure  
Sea Level Pressure 30.00 in    
Wind  
Wind Speed 9 mph (NW)    
Max Wind Speed 18 mph    
Max Gust Speed 29 mph    
Visibility 9 miles    
Events Snow    
Averages and records for this station are not official NWS values.
T = Trace of Precipitation, MM = Missing Value Source: NWS Daily Summary

Daily Weather History Graph

Daily Weather History Graph

Search for Another Location

Airport or City:

Trip Planner

Search our weather history database for the weather conditions in past years. The results will help you decide how hot, cold, wet, or windy it might be!

Date:

Astronomy

Apr. 15, 2014 Rise Set
Actual Time 6:59 AM EDT 8:25 PM EDT
Civil Twilight 6:29 AM EDT 8:55 PM EDT
Nautical Twilight 5:53 AM EDT 9:31 PM EDT
Astronomical Twilight 5:14 AM EDT 10:10 PM EDT
Moon 9:07 PM EDT (4/15) 7:06 AM EDT (4/15)
Length of Visible Light 14h 26m
Length of Day
13h 26m
Full, 100% of the Moon is Illuminated
Apr 15
Full
Apr 22
Last Quarter
Apr 29
New
May 6
First Quarter
May 14
Full

Hourly Weather History & Observations

Time (EDT) Temp. Windchill Dew Point Humidity Pressure Visibility Wind Dir Wind Speed Gust Speed Precip Events Conditions
12:15 AM 23.9 °F 15.0 °F 19.2 °F 82% 29.88 in 4.0 mi NNW 8.1 mph 18.4 mph N/A Snow Light Snow
12:34 AM 23.9 °F 14.2 °F 20.1 °F 85% 29.87 in 4.0 mi NNW 9.2 mph - N/A Snow Light Snow
12:55 AM 23.9 °F 14.2 °F 19.4 °F 83% 29.88 in 7.0 mi NNW 9.2 mph 18.4 mph N/A Snow Light Snow
1:15 AM 23.9 °F 15.8 °F 19.4 °F 83% 29.88 in 5.0 mi NNW 6.9 mph 17.3 mph N/A Snow Light Snow
1:34 AM 23.9 °F 15.0 °F 19.2 °F 82% 29.87 in 10.0 mi NNW 8.1 mph 17.3 mph N/A   Overcast
1:55 AM 23.9 °F 15.0 °F 19.4 °F 83% 29.88 in 10.0 mi NW 8.1 mph - N/A   Overcast
2:15 AM 23.9 °F 15.0 °F 19.0 °F 82% 29.87 in 10.0 mi NNW 8.1 mph 16.1 mph N/A   Overcast
2:34 AM 23.9 °F 14.2 °F 18.5 °F 80% 29.88 in 10.0 mi NNW 9.2 mph - N/A   Overcast
2:55 AM 23.9 °F 16.8 °F 18.5 °F 80% 29.88 in 10.0 mi NNW 5.8 mph - N/A   Overcast
3:15 AM 23.7 °F 15.6 °F 18.5 °F 80% 29.88 in 10.0 mi NW 6.9 mph - N/A   Overcast
3:34 AM 23.7 °F 15.6 °F 19.0 °F 82% 29.88 in 10.0 mi NW 6.9 mph - N/A   Overcast
3:55 AM 23.9 °F 13.5 °F 18.7 °F 80% 29.88 in 10.0 mi NW 10.4 mph - N/A   Overcast
4:15 AM 23.5 °F 12.4 °F 16.9 °F 76% 29.88 in 10.0 mi NNW 11.5 mph 17.3 mph N/A   Overcast
4:34 AM 23.7 °F 12.6 °F 16.5 °F 74% 29.89 in 10.0 mi NNW 11.5 mph 17.3 mph N/A   Overcast
4:55 AM 23.5 °F 13.0 °F 16.2 °F 73% 29.88 in 10.0 mi NNW 10.4 mph 17.3 mph N/A   Overcast
5:15 AM 23.7 °F 14.0 °F 16.5 °F 74% 29.89 in 10.0 mi NNW 9.2 mph 18.4 mph N/A Snow Light Snow
5:34 AM 23.2 °F 16.0 °F 16.9 °F 77% 29.89 in 10.0 mi NNW 5.8 mph - N/A Snow Light Snow
5:55 AM 23.0 °F 14.7 °F 16.2 °F 75% 29.89 in 10.0 mi NW 6.9 mph - N/A Snow Light Snow
6:14 AM 23.0 °F 17.0 °F 17.2 °F 79% 29.90 in 10.0 mi NW 4.6 mph - N/A Snow Light Snow
6:34 AM 23.0 °F 14.7 °F 18.1 °F 82% 29.90 in 5.0 mi NNW 6.9 mph - N/A Snow Light Snow
6:55 AM 23.0 °F 15.8 °F 18.9 °F 84% 29.91 in 3.0 mi NW 5.8 mph - N/A Snow Light Snow
7:14 AM 23.0 °F 12.4 °F 18.0 °F 81% 29.92 in 10.0 mi NW 10.4 mph - N/A   Overcast
7:35 AM 22.8 °F 14.5 °F 17.6 °F 80% 29.93 in 10.0 mi NW 6.9 mph - N/A Snow Light Snow
7:55 AM 22.5 °F 14.1 °F 17.4 °F 81% 29.93 in 10.0 mi NW 6.9 mph - N/A   Overcast
8:14 AM 23.5 °F 15.4 °F 17.6 °F 78% 29.94 in 10.0 mi NW 6.9 mph - N/A Snow Light Snow
8:35 AM 23.5 °F 13.0 °F 16.7 °F 75% 29.94 in 10.0 mi NW 10.4 mph - N/A Snow Light Snow
8:55 AM 24.4 °F 14.2 °F 17.2 °F 74% 29.95 in 10.0 mi NNW 10.4 mph - N/A   Mostly Cloudy
9:14 AM 24.6 °F 13.8 °F 15.8 °F 69% 29.95 in 10.0 mi NNW 11.5 mph 19.6 mph N/A   Scattered Clouds
9:35 AM 25.2 °F 13.9 °F 15.4 °F 67% 29.95 in 10.0 mi NW 12.7 mph 19.6 mph N/A   Mostly Cloudy
9:55 AM 25.5 °F 13.8 °F 14.5 °F 63% 29.96 in 10.0 mi North 13.8 mph 20.7 mph N/A   Overcast
10:14 AM 24.6 °F 15.1 °F 15.4 °F 68% 29.97 in 3.0 mi NW 9.2 mph 17.3 mph N/A Snow Light Snow
10:35 AM 24.6 °F 13.2 °F 15.8 °F 69% 29.97 in 10.0 mi NNW 12.7 mph 18.4 mph N/A   Overcast
10:54 AM 25.3 °F 14.1 °F 15.8 °F 67% 29.98 in 3.0 mi NNW 12.7 mph 20.7 mph N/A Snow Light Snow
11:15 AM 24.8 °F 16.1 °F 18.7 °F 78% 29.99 in 2.0 mi NNW 8.1 mph 19.6 mph N/A Snow Light Snow
11:35 AM 26.2 °F 16.4 °F 15.8 °F 65% 29.99 in 10.0 mi NNW 10.4 mph 16.1 mph N/A   Scattered Clouds
11:54 AM 26.6 °F 16.8 °F 15.6 °F 63% 30.00 in 10.0 mi NNW 10.4 mph 18.4 mph N/A   Mostly Cloudy
12:15 PM 25.5 °F 14.9 °F 12.9 °F 59% 30.00 in 10.0 mi NNW 11.5 mph 21.9 mph N/A   Mostly Cloudy
12:54 PM 27.3 °F 15.2 °F 11.5 °F 51% 30.01 in 10.0 mi NW 16.1 mph 21.9 mph N/A   Scattered Clouds
1:15 PM 28.2 °F 16.8 °F 9.7 °F 46% 30.01 in 10.0 mi WNW 15.0 mph 23.0 mph N/A   Mostly Cloudy
1:55 PM 27.9 °F 16.8 °F 8.4 °F 44% 30.03 in 10.0 mi North 13.8 mph 25.3 mph N/A   Overcast
2:15 PM 28.8 °F 16.2 °F 9.0 °F 43% 30.03 in 10.0 mi NNW 18.4 mph 25.3 mph N/A   Overcast
2:34 PM 28.2 °F 16.8 °F 7.9 °F 42% 30.04 in 10.0 mi North 15.0 mph 19.6 mph N/A   Overcast
2:55 PM 28.6 °F 18.2 °F 8.4 °F 43% 30.05 in 10.0 mi NNW 12.7 mph 19.6 mph N/A   Overcast
3:14 PM 30.9 °F 20.2 °F 9.1 °F 40% 30.05 in 10.0 mi NW 15.0 mph 24.2 mph N/A   Overcast
3:35 PM 30.7 °F 20.4 °F 7.9 °F 38% 30.06 in 10.0 mi NW 13.8 mph 28.8 mph N/A   Overcast
3:55 PM 29.3 °F 18.2 °F 6.8 °F 39% 30.06 in 10.0 mi NNW 15.0 mph 23.0 mph N/A   Overcast
4:14 PM 30.6 °F 19.4 °F 7.5 °F 38% 30.06 in 10.0 mi WNW 16.1 mph 21.9 mph N/A   Mostly Cloudy
4:35 PM 29.8 °F 18.9 °F 6.1 °F 37% 30.07 in 10.0 mi WNW 15.0 mph 23.0 mph N/A   Overcast
4:54 PM 29.5 °F 21.8 °F 6.8 °F 38% 30.07 in 10.0 mi NNW 8.1 mph 19.6 mph N/A   Mostly Cloudy
5:15 PM 30.6 °F 20.2 °F 9.3 °F 41% 30.07 in 10.0 mi NNW 13.8 mph 20.7 mph N/A   Overcast
5:35 PM 30.2 °F 20.2 °F 8.4 °F 40% 30.07 in 10.0 mi North 12.7 mph 18.4 mph N/A   Overcast
5:54 PM 30.7 °F 23.3 °F 7.7 °F 38% 30.08 in 10.0 mi WNW 8.1 mph 16.1 mph N/A   Overcast
6:15 PM 30.4 °F 21.5 °F 4.3 °F 33% 30.09 in 10.0 mi WNW 10.4 mph - N/A   Mostly Cloudy
6:35 PM 30.2 °F 22.6 °F 5.0 °F 34% 30.10 in 10.0 mi NW 8.1 mph - N/A   Mostly Cloudy
6:54 PM 30.4 °F 21.5 °F 7.2 °F 38% 30.10 in 10.0 mi WNW 10.4 mph 20.7 mph N/A   Mostly Cloudy
7:15 PM 29.7 °F 20.7 °F 8.1 °F 40% 30.10 in 10.0 mi WNW 10.4 mph - N/A   Mostly Cloudy
7:35 PM 29.3 °F 23.2 °F 9.3 °F 43% 30.11 in 10.0 mi WNW 5.8 mph - N/A   Mostly Cloudy
7:54 PM 29.3 °F 20.8 °F 8.2 °F 41% 30.11 in 10.0 mi WNW 9.2 mph - N/A   Mostly Cloudy
8:15 PM 29.1 °F 20.6 °F 9.1 °F 43% 30.12 in 10.0 mi WNW 9.2 mph - N/A   Scattered Clouds
8:35 PM 28.4 °F 22.2 °F 9.1 °F 44% 30.13 in 10.0 mi WNW 5.8 mph - N/A   Clear
8:54 PM 27.9 °F 22.6 °F 11.1 °F 50% 30.14 in 10.0 mi WNW 4.6 mph - N/A   Clear
9:15 PM 27.5 °F 21.1 °F 11.1 °F 50% 30.15 in 10.0 mi West 5.8 mph - N/A   Clear
9:34 PM 27.1 °F 21.8 °F 13.8 °F 57% 30.16 in 10.0 mi West 4.6 mph - N/A   Clear
9:55 PM 27.1 °F 21.8 °F 13.1 °F 56% 30.17 in 10.0 mi West 4.6 mph - N/A   Clear
10:15 PM 26.8 °F 22.8 °F 13.5 °F 57% 30.17 in 10.0 mi West 3.5 mph - N/A   Clear
10:34 PM 26.1 °F 21.9 °F 14.9 °F 63% 30.18 in 10.0 mi WSW 3.5 mph - N/A   Clear
10:55 PM 25.3 °F 21.1 °F 14.9 °F 65% 30.18 in 10.0 mi WSW 3.5 mph - N/A   Clear
11:15 PM 24.8 °F 19.1 °F 15.4 °F 68% 30.19 in 10.0 mi WSW 4.6 mph - N/A   Clear
11:34 PM 25.7 °F 18.0 °F 14.5 °F 63% 30.20 in 10.0 mi West 6.9 mph - N/A   Clear
11:55 PM 25.9 °F 19.2 °F 15.3 °F 64% 30.20 in 10.0 mi West 5.8 mph - N/A   Clear